Regional Weather Roundup
Issued by NWS Jackson, KY

Home | Current Version | Previous Version | Text Only | Print | Product List | Glossary On
Versions: 1 2 3 4 5 6 7 8 9 10 11 12 13 14 15 16 17 18 19 20 21 22 23 24 25 26 27 28 29 30 31 32 33 34 35 36 37 38 39 40 41 42 43 44 45 46 47 48 49 50
000
ASUS43 KJKL 302010
RWRJKL

EAST KENTUCKY HOURLY WEATHER ROUNDUP
NATIONAL WEATHER SERVICE JACKSON KY
400 PM EDT SUN AUG 30 2015

NOTE: "FAIR" INDICATES FEW OR NO CLOUDS BELOW 12,000 FEET WITH
NO SIGNIFICANT WEATHER AND/OR OBSTRUCTIONS TO VISIBILITY.

* THESE REPORTS ARE NOT UNDER NWS QUALITY CONTROL AND MAY NOT
  REPORT WEATHER SUCH AS PRECIPITATION AND FOG.

KYZ079-080-083-085-087-088-110-112-115-119-120-302100
...EASTERN KENTUCKY...

CITY           SKY/WX    TMP DP  RH WIND       PRES   REMARKS
JACKSON        CLOUDY    80  66  62 CALM      30.14F
LONDON         CLOUDY    81  60  48 SW3       30.14F
SOMERSET*      MOSUNNY   79  61  53 S7        30.13F
MONTICELLO*    CLOUDY    81  65  58 CALM      30.15F
MIDDLESBORO*   CLOUDY    79  67  65 CALM      30.14F
HAZARD APT*    MOCLDY    81  64  57 CALM      30.14F
BLACK MTN*       N/A     70  64  83 N1          N/A
PIKEVILLE APT* SUNNY     77  66  69 S3        30.16F
BIG SANDY*     CLOUDY    80  67  65 S6        30.15F
MOREHEAD APT*  MOCLDY    82  66  57 VRB7      30.13F
$$

KYZ035-036-041-042-044-050-067-078-099-302100
...CENTRAL KENTUCKY...

CITY           SKY/WX    TMP DP  RH WIND       PRES   REMARKS
MT STERLING*   MOSUNNY  N/A N/A N/A S3        30.12F
FLEMING/MASON* MOSUNNY   84  68  58 SW12      30.10F
DANVILLE*      MOSUNNY   82  64  54 W7        30.12F
RICHMOND*      CLOUDY    82  61  47 W7        30.11F
LEXINGTON      PTSUNNY   84  66  54 SW9       30.10F
FRANKFORT      PTSUNNY   85  65  51 S12       30.07F
$$

KYZ091>093-OHZ055-061-077-WVZ005-015-034-035-042-302100
...SOUTHERN OHIO/WEST VIRGINIA...

CITY           SKY/WX    TMP DP  RH WIND       PRES   REMARKS
COVINGTON      PTSUNNY   86  64  47 S9        30.07F
COLUMBUS       PTSUNNY   84  67  56 S8        30.05F
DAYTON         MOSUNNY   84  67  56 SW12      30.07F
WILMINGTON     MOSUNNY   83  68  60 S8        30.07F
HUNTINGTON     PTSUNNY   84  64  50 S8        30.10F
CHARLESTON     CLOUDY    82  66  58 SW6       30.12F
PINEVILLE*     CLOUDY    78  68  72 MISG      30.22F
BECKLEY        CLOUDY    77  63  61 CALM      30.20F
BLUEFIELD      CLOUDY    76  60  57 CALM      30.23F
$$

VAZ002-007-008-TNZ017-027-036-066-071-302100
...SOUTHWEST VIRGINIA/EAST TENNESSEE...

CITY           SKY/WX    TMP DP  RH WIND       PRES   REMARKS
WISE*          CLOUDY    75  61  60 CALM      30.23F
JONESVILLE*    CLOUDY    77  52  41 CALM      30.17F
ABINGDON*      CLOUDY    81  60  48 E5        30.18F
BRISTOL        PTSUNNY   82  62  50 VRB3      30.14F
KNOXVILLE      CLOUDY    69  63  81 SE3       30.09F
OAK RIDGE      CLOUDY    81  66  60 VRB3      30.13F
CROSSVILLE     CLOUDY    77  59  53 VRB3      30.17F
NASHVILLE      PTSUNNY   78  65  63 S7        30.10F
$$

...KEY TO REMARKS...
VSB - VISIBILITY IN MILES
WCI - WIND CHILL INDEX
HX  - HEAT INDEX

$$


USA.gov is the U.S. government's official web portal to all federal, state and local government web resources and services.